Regional Weather Roundup
Issued by NWS

Home | Current Version | Previous Version | Text Only | Print | Product List | Glossary Off
Versions: 1 2 3 4 5 6 7 8 9 10 11 12 13 14 15 16 17 18 19 20 21 22 23 24 25 26 27 28 29 30 31 32 33 34 35 36 37 38 39 40 41 42 43 44 45 46 47 48 49 50

000
ASUS43 KDMX 231503
RWRIA

WEATHER ROUNDUP FOR IOWA
NATIONAL WEATHER SERVICE DES MOINES IA
1000 AM CDT SAT JUL 23 2016

NOTE: "FAIR" INDICATES FEW OR NO CLOUDS BELOW 12,000 FEET WITH NO
SIGNIFICANT WEATHER AND/OR OBSTRUCTIONS TO VISIBILITY.

* - THESE STATIONS ARE NOT NWS STATIONS...THUS NOT UNDER NWS
QUALITY CONTROL.  THEY ALSO DO NOT REPORT WEATHER SUCH
AS PRECIPITATION OR FOG.

IAZ001>003-012>014-020>022-031>034-043>046-231600-
   NORTHWEST IOWA

CITY           SKY/WX    TMP DP  RH WIND       PRES   REMARKS
CARROLL *      CLOUDY    81  75  83 CALM      29.88R HX  86
CHEROKEE *     TSTM      77  77  99 E8        29.85F
DENISON *      CLOUDY    81  73  78 W6        29.86S HX  85
LE MARS *        N/A     79  75  89 SE8       29.84F HX  82
SHELDON *      CLOUDY    77  77 100 S8        29.84S
SIOUX CITY     PTSUNNY   82  74  76 S5        29.83R HX  88
SPENCER        TSTM      76  73  91 SE15      29.87F FOG
STORM LAKE *   CLOUDY    77  75  94 E5        29.90F
$$

IAZ055>058-069>071-079>083-090>094-231600-
   SOUTHWEST IOWA

CITY           SKY/WX    TMP DP  RH WIND       PRES   REMARKS
ATLANTIC *     CLOUDY    81  73  78 S9G16     29.86F HX  85
CLARINDA *       N/A     81  75  83 MISG      29.89F HX  86
COUNCIL BLFS * MOSUNNY   79  72  78 S9        29.86S HX  82
CRESTON *      CLOUDY    84  75  74 S13       29.92F HX  92
HARLAN  *      CLOUDY    79  73  83 S10       29.89R HX  82
LAMONI         MOSUNNY   86  77  74 S12       29.92F HX  97
RED OAK *      PTSUNNY   82  75  78 S6        29.87F HX  89
SHENANDOAH *   CLOUDY    81  77  89 S9        29.86F HX  88
$$

IAZ047>049-059>061-072>074-084-231600-
   CENTRAL IOWA

CITY           SKY/WX    TMP DP  RH WIND       PRES   REMARKS
AMES           CLOUDY    81  79  94 SE7       29.88F HX  90
ANKENY *         N/A    N/A N/A N/A MISG        N/A
BOONE *        MOSUNNY   81  79  94 SE7       29.88F HX  89
CHARITON *       N/A    N/A N/A N/A MISG        N/A
DES MOINES     PTSUNNY   86  77  74 S12       29.87F HX  97
GRINNELL*      CLOUDY    82  76  80 S9        29.92F HX  90
KNOXVILLE *    CLOUDY    86  77  74 S10       29.90F HX  97
MARSHALLTOWN   CLOUDY    83  78  85 SE8       29.90F HX  93
NEWTON *       CLOUDY    82  81  94 S10       29.90F HX  95
PELLA *        PTSUNNY   88  76  67 S8        29.92F HX  99
PERRY *          N/A     84  79  83 S8        29.87F HX  96
$$

IAZ004>006-015-016-023>025-035-036-231600-
   NORTH CENTRAL IOWA

CITY           SKY/WX    TMP DP  RH WIND       PRES   REMARKS
ALGONA *       CLOUDY    75  72  88 VRB6      29.86F
ESTHERVILLE    LGT RAIN  73  72  96 SW9       29.87F
FORT DODGE *   CLOUDY    79  77  94 SE8       29.87S HX  83
MASON CITY     LGT RAIN  77  75  93 SE8       29.93F
FOREST CITY *  LGT RAIN  73  73 100 E3        29.89F
IOWA FALLS *   PTSUNNY   80  76  89 E8        29.92F HX  85
$$

IAZ007>011-017>019-026>030-037>042-050>054-066-231600-
   NORTHEAST IOWA

CITY           SKY/WX    TMP DP  RH WIND       PRES   REMARKS
CEDAR RAPIDS   CLOUDY    82  80  94 SE9       29.94F HX  94
CHARLES CITY * CLOUDY    73  73 100 E8G20     29.97R
DECORAH *      LGT RAIN  72  72 100 E8        30.00R
DUBUQUE        CLOUDY    79  77  94 SE7       29.99S HX  83
MONTICELLO *   PTSUNNY   81  79  94 SE6       29.95S HX  89
OELWEIN *      CLOUDY    79  77  94 E6        29.96R HX  83
WATERLOO       CLOUDY    79  77  94 SE6       29.92R HX  83
$$

IAZ064-065-067-068-078-231600-
   EAST CENTRAL IOWA

CITY           SKY/WX    TMP DP  RH WIND       PRES   REMARKS
DAVENPORT      PTSUNNY   84  78  82 SE7       29.97F HX  95
IOWA CITY      MOSUNNY   83  79  88 SE12      29.95F HX  94
MT. PLEASANT * MOSUNNY   88  82  82 S5        29.96F HX 106
MUSCATINE *    CLOUDY    84  79  84 S9        29.95F HX  96
QUAD CITIES    MOSUNNY   87  78  74 SE8       29.96F HX 100
$$

IAZ062-063-075>077-085>089-095>099-231600-
   SOUTHEAST IOWA

CITY           SKY/WX    TMP DP  RH WIND       PRES   REMARKS
BURLINGTON     CLOUDY    83  78  85 S6        29.97S HX  93
FAIRFIELD *    MOSUNNY   86  79  79 S8G14     29.95S HX  99
KEOKUK *       CLOUDY    84  77  79 SE5       29.96F HX  94
CENTERVILLE *    N/A     86  77  74 S5        29.96F HX  97
OTTUMWA        MOSUNNY   86  76  71 S7        29.94S HX  96
WASHINGTON *   SUNNY     84  81  89 S8        29.96F HX  98
$$

ABBREVIATIONS USED IN REMARKS
   TC - TEMPERATURES IN CELSIUS
  WCI - WIND CHILL INDEX
   HX - HEAT INDEX
  VSB - VISIBILITY
$$





USA.gov is the U.S. government's official web portal to all federal, state and local government web resources and services.